This demonstration page uses our WeatherBlox Daily Observations layout. Learn more.

Left ArrowRight Arrow

39.51506, -84.39828

Hourly Observations for April 6, 2016

Temp ( °F °C ) Dew Point ( °F °C ) Humidity (%) Winds ( mph kmh ) Pressure ( in mb ) Visibility ( mi km ) Precip ( " mm )
12:15 am 00:15 Clear 39 4 15 -9.5 37 37 SE 5 7 30.27 1025 10 16 N/A
12:35 am 00:35 Clear 39 4 14 -10.1 35 35 N N/A 30.24 1024 10 16 N/A
12:55 am 00:55 Clear 38 3.4 14 -9.8 38 38 N N/A 30.24 1024 10 16 N/A
1:15 am 01:15 Clear 36 2.4 21 -6.1 54 54 N N/A 30.21 1023 10 16 N/A
1:35 am 01:35 Clear 37 2.5 18 -8 46 46 SSE 6 9 30.18 1022 10 16 N/A
1:55 am 01:55 Clear 39 4 14 -10.2 35 35 SSE 9 15 30.18 1022 10 16 N/A
2:15 am 02:15 Clear 39 4 13 -10.3 35 35 SSE 6 9 30.18 1022 10 16 N/A
2:35 am 02:35 Clear 39 4 15 -9.3 38 38 S 3 6 30.15 1021 10 16 N/A
2:55 am 02:55 Clear 39 4 14 -9.9 36 36 SSW 7 11 30.18 1022 10 16 N/A
3:15 am 03:15 Clear 39 4 15 -9.7 36 36 S 6 9 30.15 1021 10 16 N/A
3:35 am 03:35 Clear 39 4 14 -9.8 36 36 SSE 5 7 30.15 1021 10 16 N/A
3:55 am 03:55 Clear 39 4 14 -10.1 35 35 S 5 7 30.15 1021 10 16 N/A
4:15 am 04:15 Clear 39 4 13 -10.6 34 34 S 3 6 30.12 1020 10 16 N/A
4:35 am 04:35 Clear 39 4.1 13 -10.5 34 34 S 6 9 30.12 1020 10 16 N/A
4:55 am 04:55 Clear 40 4.3 15 -9.6 36 36 SE 3 6 30.12 1020 10 16 N/A
5:15 am 05:15 Clear 40 4.5 14 -10.2 34 34 SSE 7 11 30.06 1018 10 16 N/A
5:35 am 05:35 Clear 40 4.6 13 -10.4 33 33 SSE 5 7 30.06 1018 10 16 N/A
5:55 am 05:55 Clear 40 4.7 13 -10.6 32 32 SSE 5 7 30.03 1017 10 16 N/A
6:15 am 06:15 Clear 41 5 13 -10.5 32 32 S 5 7 30.03 1017 10 16 N/A
6:35 am 06:35 Clear 42 5.5 14 -10.1 32 32 S 8 13 30.00 1016 10 16 N/A
6:55 am 06:55 Clear 42 5.5 13 -10.6 31 31 S 6 9 30.03 1017 10 16 N/A
7:15 am 07:15 Sunny 42 5.5 14 -10.1 32 32 S 5 7 30.00 1016 10 16 N/A
7:35 am 07:35 Mostly Cloudy 42 5.8 15 -9.3 33 33 S 5 7 30.00 1016 10 16 N/A
7:55 am 07:55 Mostly Cloudy 43 6.3 17 -8.2 35 35 SW 5 7 30.03 1017 10 16 N/A
8:15 am 08:15 Mostly Cloudy 43 6.1 20 -6.7 40 40 SSW 3 6 30.03 1017 10 16 N/A
8:35 am 08:35 Cloudy 47 8.2 19 -7.5 32 32 S 12 19 30.00 1016 10 16 N/A
8:55 am 08:55 Cloudy 47 8.4 19 -7.2 33 33 S 13 20 29.97 1015 10 16 N/A
9:15 am 09:15 Mostly Cloudy 49 9.6 20 -6.5 32 32 S 13 20 29.97 1015 10 16 N/A
9:35 am 09:35 Partly Cloudy 49 9.6 19 -7.5 29 29 S 17 28 29.94 1014 10 16 N/A
9:55 am 09:55 Partly Cloudy 51 10.3 20 -6.8 30 30 S 21 33 29.91 1013 10 16 N/A
10:15 am 10:15 Partly Cloudy 52 11 20 -6.4 29 29 SSW 21 33 29.91 1013 10 16 N/A
10:35 am 10:35 Partly Cloudy 55 12.5 23 -4.8 30 30 S 17 28 29.88 1012 10 16 N/A
10:55 am 10:55 Sunny 55 12.5 23 -4.8 30 30 SSW 20 31 29.88 1012 10 16 N/A
11:15 am 11:15 Sunny 55 12.5 24 -4.3 31 31 S 17 28 29.88 1012 10 16 N/A
11:35 am 11:35 Partly Cloudy 57 13.8 26 -3.5 30 30 S 16 26 29.83 1010 10 16 N/A
11:55 am 11:55 Partly Cloudy 60 15.3 25 -4.1 26 26 S 15 24 29.83 1010 10 16 N/A
12:15 pm 12:15 Mostly Cloudy 62 16.9 24 -4.2 23 23 SSW 14 22 29.83 1010 10 16 N/A
12:35 pm 12:35 Partly Cloudy 64 18 25 -4.1 22 22 S 26 43 29.80 1009 10 16 N/A
12:55 pm 12:55 Partly Cloudy 64 18 26 -3.5 23 23 SSW 23 37 29.80 1009 10 16 N/A
1:15 pm 13:15 Partly Cloudy 66 19.1 29 -1.7 25 25 SSW 15 24 29.77 1008 10 16 N/A
1:35 pm 13:35 Mostly Cloudy 67 19.5 30 -1.2 25 25 SSW 24 39 29.77 1008 10 16 N/A
1:55 pm 13:55 Partly Cloudy 67 19.5 31 -0.4 26 26 SW 29 46 29.77 1008 10 16 N/A
2:15 pm 14:15 Partly Cloudy 64 18 30 -1.1 28 28 SSW 25 41 29.74 1007 10 16 N/A
2:35 pm 14:35 Sunny 64 17.5 30 -0.9 29 29 SSW 29 46 29.74 1007 10 16 N/A
2:55 pm 14:55 Partly Cloudy 64 17.9 32 undefined 30 30 SSW 20 31 29.71 1006 10 16 N/A
3:15 pm 15:15 Partly Cloudy 64 18 32 -0.1 30 30 SSW 25 41 29.71 1006 10 16 N/A
3:35 pm 15:35 Mostly Cloudy 64 18 33 0.4 31 31 SW 22 35 29.68 1005 10 16 N/A
3:55 pm 15:55 Mostly Cloudy with Light Rain 64 18 35 1.6 33 33 SW 20 31 29.68 1005 10 16 N/A
4:15 pm 16:15 Partly Cloudy 67 19.5 37 2.8 33 33 SW 17 28 29.68 1005 10 16 N/A
4:35 pm 16:35 Mostly Cloudy with Light Rain 64 18 37 2.5 36 36 SW 28 44 29.68 1005 10 16 N/A
4:55 pm 16:55 Cloudy 62 16.6 40 4.2 44 44 SW 15 24 29.68 1005 10 16 N/A
5:15 pm 17:15 Cloudy with Light Rain 61 16.3 40 4.7 46 46 SSW 18 30 29.65 1004 10 16 N/A
5:35 pm 17:35 Cloudy 62 16.6 41 5.1 47 47 SSW 18 30 29.62 1003 10 16 N/A
5:55 pm 17:55 Cloudy 63 17 41 5 45 45 S 16 26 29.62 1003 10 16 N/A
6:15 pm 18:15 Cloudy 62 16.9 40 4.4 44 44 SSW 25 41 29.62 1003 10 16 N/A
6:35 pm 18:35 Mostly Cloudy 61 16.1 42 5.6 50 50 SSW 21 33 29.62 1003 10 16 N/A
6:55 pm 18:55 Mostly Cloudy 60 15.3 45 7.2 59 59 SSW 28 44 29.62 1003 10 16 N/A
7:15 pm 19:15 Mostly Cloudy 60 15.3 47 8.1 62 62 SSW 25 41 29.59 1002 10 16 N/A
7:35 pm 19:35 Cloudy 58 14.2 46 7.7 65 65 SSW 20 31 29.59 1002 10 16 N/A
7:55 pm 19:55 Cloudy 57 14 46 7.5 65 65 SSW 25 41 29.59 1002 10 16 N/A
8:15 pm 20:15 Cloudy 57 13.8 46 7.5 66 66 SSW 28 44 29.59 1002 10 16 N/A
8:35 pm 20:35 Cloudy 57 13.8 46 7.6 66 66 SSW 20 31 29.56 1001 10 16 N/A
8:55 pm 20:55 Cloudy with Rain 57 13.8 48 8.7 72 72 SSW 18 30 29.56 1001 10 16 N/A
9:15 pm 21:15 Cloudy 57 13.8 47 8.6 71 71 SSW 18 30 29.56 1001 10 16 N/A
9:35 pm 21:35 Cloudy 57 13.8 48 8.7 72 72 SSW 17 28 29.53 1000 10 16 N/A
9:55 pm 21:55 Cloudy with Rain 55 12.8 47 8.1 73 73 SSW 15 24 29.53 1000 10 16 N/A
10:15 pm 22:15 Cloudy with Light Rain 55 12.5 48 9.1 80 80 SSW 16 26 29.53 1000 10 16 N/A
10:35 pm 22:35 Cloudy with Rain 55 12.5 49 9.6 83 83 WSW 17 28 29.53 1000 5 8 N/A
10:55 pm 22:55 Cloudy with Light Rain 50 9.9 44 6.7 81 81 W 17 28 29.59 1002 10 16 N/A
11:15 pm 23:15 Cloudy 49 9.6 44 6.6 82 82 W 20 31 29.59 1002 10 16 N/A
11:35 pm 23:35 Cloudy with Light Snow 49 9.6 44 6.8 83 83 W 15 24 29.62 1003 10 16 N/A
11:55 pm 23:55 Cloudy 49 9.6 44 6.7 82 82 W 9 15 29.62 1003 10 16 N/A

Powered by AerisWeather